Location: Beadle
(51.4667°N, 109.0000°W)
Time: 04:40:52
(UTC+00:00)

Altair - Pass Details

Date: 30 May 2022
Orbit: 1501 x 1682 km, 47.2° (Epoch: 30 June)

Event Time Altitude Azimuth Distance (km) Brightness Sun altitude
Rises 23:01:27 0° 233° (SW) 4,812 10.9 37.4°
Reaches altitude 10° 23:04:36 10° 229° (SW) 3,851 10.6 36.9°
Maximum altitude 23:14:06 55° 156° (SSE) 1,948 8.4 35.4°
Drops below altitude 10° 23:23:50 10° 82° (E) 3,947 9.2 33.9°
Sets 23:27:06 0° 79° (ENE) 4,939 9.6 33.4°
